Overview Statistics Trail Chart Weather Telemetry Raw packets
 

This is the latest recevied weather packets stored in our database for station/object 4S6DRJ-13. If no packets are shown the sender has not sent any weather packets the latest 10 day(s).

<< 201 202 203 204 205 206 207 >>
Time Temp. Humidity Pressure Rain* Wind** Luminosity Snow
1788167071 31.67° C 69% 1007 hPa 0 mm 1.79 m/s, 260° 292 W/m² -
1788167010 31.67° C 68% 1007.2 hPa 0 mm 1.34 m/s, 320° 927 W/m² -
1788166949 31.67° C 68% 1007.2 hPa 0 mm 0.89 m/s, 272° 916 W/m² -
1788166890 31.67° C 67% 1007.1 hPa 0 mm 2.68 m/s, 204° 942 W/m² -
1788166827 31.67° C 67% 1007.4 hPa 0 mm 2.24 m/s, 203° 949 W/m² -
1788166766 31.67° C 68% 1007.1 hPa 0 mm 1.79 m/s, 268° 936 W/m² -
1788166706 31.67° C 69% 1007.2 hPa 0 mm 1.79 m/s, 256° 698 W/m² -
1788166644 31.67° C 69% 1007.3 hPa 0 mm 1.79 m/s, 259° 979 W/m² -
1788166583 31.67° C 68% 1007.5 hPa 0 mm 1.79 m/s, 142° 997 W/m² -
1788166522 31.67° C 70% 1007.3 hPa 0 mm 1.34 m/s, 307° 999 W/m² -
1788166461 31.67° C 69% 1007.3 hPa 0 mm 2.24 m/s, 216° 1102 W/m² -
1788166400 31.67° C 68% 1007.4 hPa 0 mm 1.79 m/s, 258° 1103 W/m² -
1788166340 31.67° C 69% 1007.5 hPa 0 mm 1.34 m/s, 200° 264 W/m² -
1788166279 31.67° C 69% 1007.5 hPa 0 mm 1.79 m/s, 265° 1101 W/m² -
1788166221 31.67° C 68% 1007.2 hPa 0 mm 1.79 m/s, 182° 1106 W/m² -
1788166156 31.67° C 68% 1007.3 hPa 0 mm 3.58 m/s, 298° 1107 W/m² -
1788166095 31.67° C 69% 1007.3 hPa 0 mm 1.79 m/s, 229° 392 W/m² -
1788166034 31.67° C 69% 1007.5 hPa 0 mm 2.24 m/s, 249° 1110 W/m² -
1788165973 31.11° C 70% 1007.4 hPa 0 mm 1.79 m/s, 275° 903 W/m² -
1788165912 31.11° C 71% 1007.4 hPa 0 mm 0.89 m/s, 296° 1114 W/m² -
1788165851 31.11° C 71% 1007.5 hPa 0 mm 0 m/s 406 W/m² -
1788165790 31.11° C 70% 1007.4 hPa 0 mm 3.58 m/s, 214° 1113 W/m² -
1788165729 31.11° C 72% 1007.4 hPa 0 mm 2.24 m/s, 348° 490 W/m² -
1788165668 31.11° C 73% 1007.3 hPa 0 mm 1.34 m/s, 264° 1121 W/m² -
1788165607 31.11° C 72% 1007.3 hPa 0 mm 2.68 m/s, 134° 423 W/m² -

* Rain latest hour (hover to see other rain measurements)
** Current wind speed in m/s (hover to see current wind gust speed)